www.pogodaiklimat.ru

Погода и климат >> Архив погоды >> Россия >> Тульская область >> Тула


АРХИВ ПОГОДЫ в Туле

Время (UTC), дата Ветер
(напр.,м/с)
 
Видим.   Явления Облачность Т
(С)
Тd
(С)
f
(%)
Тe
(С)
Тes
(С)
Комфортность P
(гПа)
Po
(гПа)
Тmin
(С)
Tmax
(С)
R
(мм)
R24
(мм)
S
(см)
09 14.01 Ю 5
{10}
4000 м слаб. ливневой снег 10/10 600 м
[Cb calv]
-2.5 -4.6 85 -9 -9 по сезону 992.7 967.4
12 14.01 Ю 4
{10}
4000 м слаб. ливневой снег 10/8 600 м
[Cb calv Ac und]
-2.5 -4.5 86 -8 -8 по сезону 992.2 966.9
15 14.01 Ю 4
{12}
10 км {ливн. осадки} 10/8 600 м
[Cb calv Ac und]
-2.1 -4.7 82 -8 -8 по сезону 992.7 967.4 1
18 14.01 Ю 5
{13}
10 км {ливн. осадки} 10/4 600 м
[Cb calv Ac und]
-2.7 -5.0 84 -9 -9 по сезону 992.7 967.4 -2.0 0.9
21 14.01 Ю 4
{11}
10 км 10/6 600 м
[Cb calv Ac und]
-2.7 -4.4 88 -9 -9 по сезону 992.4 967.0
00 15.01 ЮВ 3 10 км слаб. ливневой снег 10/10 600 м
[Cb calv]
-1.9 -3.0 92 -7 -7 по сезону 991.5 966.2
03 15.01 ЮВ 4
{10}
4000 м слаб. ливневой снег 10/10 600 м
[Cb calv]
-1.1 -2.2 92 -7 -7 по сезону 989.9 964.8 -2.9 0.5
06 15.01 Ю 4 4000 м слаб. ливневой снег 10/10 600 м
[Cb calv]
-0.5 -1.3 94 -6 -6 по сезону 990.0 964.9 -2.9 2 37
09 15.01 Ю 6-13
{13}
10 км {ливн. осадки} 8/5 600 м
[Cb calv Ac trans Ci fib]
-0.9 -4.3 78 -8 -7 по сезону 992.2 967.1
12 15.01 Ю 3
{13}
10 км {ливн. осадки, метель} 8/6 600 м
[Cb calv Ac trans]
-1.7 -5.8 74 -6 -6 по сезону 993.9 968.6
15 15.01 Ю 3
{12}
10 км {метель} 6/6 600 м
[Cb calv]
-2.7 -5.6 80 -8 -8 по сезону 996.2 970.7 2
18 15.01 Ю 2 10 км {метель} 4/3 600 м
[Sc Ac trans]
-4.9 -7.1 85 -9 -9 по сезону 998.0 972.3 -0.2 0.3
21 15.01 Ю 2 10 км ясно -6.9 -9.1 84 -11 -11 по сезону 998.8 972.9
00 16.01 Ю 3 10 км 6/0
[Ac trans]
-8.1 -9.7 88 -14 -14 прохладно 998.9 972.9
03 16.01 В 1 10 км ясно -9.9 -11.0 92 -12 -12 по сезону 997.9 971.7 -9.9
06 16.01 В 1 10 км 9/4 600 м
[Cb calv Ac trans]
-10.7 -11.9 91 -13 -13 по сезону 998.2 972.0 -12.6 36
09 16.01 Ю 1 4000 м слаб. ливневой снег 10/10 600 м
[Cb calv]
-8.3 -9.7 90 -11 -11 по сезону 998.2 972.0
12 16.01 З 1 10 км {ливн. осадки} 9/6 600 м
[Cb calv Ac trans]
-6.5 -8.4 86 -9 -9 по сезону 998.7 972.8
15 16.01 З 2 10 км {ливн. осадки} 8/5 600 м
[Cb calv Ac trans]
-7.0 -8.8 87 -11 -11 по сезону 1001.1 975.2 0.4
18 16.01 ЮЗ 2 10 км 8/3 600 м
[Sc Ac trans]
-7.7 -9.9 84 -12 -12 по сезону 1002.9 976.8 -6.4 0.4
21 16.01 ЮЗ 3 10 км 10/4 600 м
[Cb calv Ac und]
-6.5 -8.7 84 -12 -12 по сезону 1004.5 978.5
00 17.01 ЮЗ 3 10 км 10/6 600 м
[Cb calv Ac und]
-5.6 -7.1 89 -11 -11 по сезону 1005.6 979.6
03 17.01 ЮЗ 4 10 км 10/8 600 м
[Cb calv Ac und]
-4.7 -6.1 90 -11 -11 по сезону 1006.8 980.9 -8.2
06 17.01 ЮЗ 3 10 км 9/5 600 м
[Cb calv Ac trans Ci fib]
-5.0 -8.6 76 -10 -10 по сезону 1007.4 981.5 -7.7 35
09 17.01 Ю 5-11
{11}
10 км 10/9 600 м
[Cb calv Ac und]
-5.3 -8.1 81 -12 -12 по сезону 1008.2 982.2
12 17.01 Ю 4
{11}
10 км {метель} 10/9 600 м
[Cb calv Ac und]
-3.8 -7.4 76 -10 -10 по сезону 1005.8 980.1
15 17.01 Ю 4-10
{11}
4000 м слаб. снег {метель} 10/8 300 м
[Frnb As op]
-4.4 -6.4 86 -11 -11 по сезону 1004.2 978.4 0.2
18 17.01 Ю 5
{12}
10 км слаб. снег {метель} 10/8 300 м
[Frnb As op]
-2.3 -4.6 84 -9 -9 по сезону 1001.4 975.9 -2.2 0.6
21 17.01 Ю 6-11
{12}
10 км позёмок {снег} 10/10 600 м
[Sc]
-1.2 -3.9 82 -8 -8 по сезону 1000.6 975.2
00 18.01 ЮЗ 7-11
{15}
10 км {снег, метель} 10/10 600 м
[Sc]
-1.0 -3.3 84 -8 -8 по сезону 1001.1 975.8
03 18.01 ЮЗ 6-10
{12}
10 км 10/10 600 м
[Sc]
-0.9 -2.3 90 -8 -8 по сезону 1002.7 977.3 -4.4 0.4
06 18.01 Ю 4
{10}
10 км 10/10 600 м
[Sc]
-0.4 -1.8 90 -6 -6 по сезону 1003.8 978.4 -2.2 0.0 33
09 18.01 ЮЗ 6 10 км 9/9 600 м
[Sc]
+0.6 -1.9 83 -6 -6 по сезону 1005.2 979.9
12 18.01 Ю 4 10 км 10/10 600 м
[Sc]
-0.4 -2.7 84 -6 -6 по сезону 1005.1 979.7
15 18.01 Ю 5
{11}
10 км 9/9 600 м
[Sc]
+0.3 -2.0 85 -6 -6 по сезону 1003.8 978.5
18 18.01 Ю 5
{11}
4000 м слаб. ливневой снег 10/10 600 м
[Cb calv]
+0.6 -0.9 90 -5 -5 по сезону 1002.9 977.6 +0.9 0.0
21 18.01 ЮЗ 5 4000 м в посл. час ливневой снег 9/9 600 м
[Cb calv]
+0.9 -1.1 86 -5 -5 тепло 1003.5 978.2
00 19.01 ЮЗ 5-10
{11}
4000 м слаб. ливневой снег 10/10 600 м
[Cb calv]
0.0 -1.2 92 -6 -6 по сезону 1004.6 979.2
03 19.01 З 3
{10}
10 км {ливн. осадки} 8/8 600 м
[Cb calv]
-2.9 -7.0 73 -8 -8 по сезону 1008.6 982.8 -0.3 0.4
06 19.01 ЮЗ 2 10 км {ливн. осадки} 4/0
[Ci fib]
-7.9 -10.3 83 -12 -12 по сезону 1011.4 985.1 -7.9 0.4 34
09 19.01 ЮЗ 2 10 км 3/0
[Ci fib]
-4.6 -9.7 67 -9 -7 по сезону 1012.1 986.0
12 19.01 ЮЗ 4 10 км 8/0
[Ac trans]
-4.0 -9.1 68 -10 -10 по сезону 1012.0 986.0
15 19.01 З 3 10 км 9/6 600 м
[Cb calv Ac trans]
-3.8 -7.2 77 -9 -9 по сезону 1013.2 987.2
18 19.01 ЮЗ 4 10 км {ливн. осадки} 8/4 600 м
[Cb calv Ac trans]
-4.8 -7.8 79 -11 -11 по сезону 1014.6 988.5 -3.7 0.0
21 19.01 З 2 10 км 4/4 600 м
[Cb calv]
-7.8 -10.0 84 -12 -12 по сезону 1017.1 990.7
00 20.01 Ю 1 10 км ясно -9.2 -10.5 90 -12 -12 по сезону 1018.5 991.8
03 20.01 ЮЗ 3 10 км 9/9 1000 м
[Sc]
-6.7 -8.2 89 -12 -12 по сезону 1018.4 992.0 -9.9 0.0
06 20.01 ЮЗ 4 10 км 10/10 1000 м
[Sc]
-6.4 -7.8 90 -13 -13 прохладно 1018.0 991.7 -9.9 34
09 20.01 ЮЗ 6
{11}
10 км позёмок 9/9 1000 м
[Sc]
-4.9 -7.8 80 -13 -12 прохладно 1017.0 991.2
12 20.01 ЮЗ 7-11
{13}
10 км позёмок 8/8 1000 м
[Sc]
-4.3 -9.1 69 -12 -12 прохладно 1015.3 989.3
15 20.01 ЮЗ 5
{11}
10 км {метель} 9/9 1000 м
[Sc]
-5.7 -9.0 77 -13 -13 прохладно 1014.6 988.4
18 20.01 ЮЗ 4
{13}
10 км {метель} 10/10 1000 м
[Sc]
-5.7 -9.3 76 -12 -12 по сезону 1013.8 987.6 -3.8
21 20.01 ЮЗ 4 4000 м слаб. ливневой снег 10/10 600 м
[Cb calv]
-5.2 -8.5 78 -12 -12 по сезону 1013.1 987.0
00 21.01 ЮЗ 4 10 км {ливн. осадки} 10/10 600 м
[Cb calv]
-6.3 -8.4 85 -13 -13 по сезону 1012.4 986.2
03 21.01 ЮЗ 4 4000 м слаб. ливневой снег 10/10 600 м
[Cb calv]
-7.2 -9.2 86 -14 -14 по сезону 1011.6 985.4 -7.2 0.0
06 21.01 ЮЗ 2 4000 м слаб. ливневой снег 9/8 600 м
[Cb calv Ac trans]
-7.9 -9.3 90 -12 -12 по сезону 1011.4 985.1 -7.9 0.6 34

 

Местоположение метеостанции Тула (Тульская область, Россия): широта 54.23 долгота 37.62 высота над уровнем моря 205 м.

В архиве по умолчанию представлена погода в Туле за последнюю неделю. Архивные данные за месяц целиком и за предыдущие месяцы, начиная с января 2011 года, Вы можете получить, выбрав интересующий диапазон дат из раскрывающегося списка и нажав кнопку "Ввод!".


*Определитесь, кто Вы:
робот инопланетянин человек

Внимание! Время в таблицах - всемирное. Для получения местного времени необходимо прибавить поправку, которая равна 3 ч.

Смотрите также архив погоды в соседних городах и на ближайших метеорологических станциях:

Погода в Узловой (Тульская область, Россия) (42 км)
Погода в Алексине (Тульская область, Россия) (46 км)
Погода в Плавске (Тульская область, Россия) (69 км)
Погода в Суворове (Тульская область, Россия) (72 км)
Погода в Кашире (Московская область, Россия) (75 км)
Погода в Серебряных Прудах (Московская область, Россия) (76 км)
Погода в Волово (Тульская область, Россия) (78 км)
Погода в Серпухове (Московская область, Россия) (78 км)
Погода в Калуге (Калужская область, Россия) (79 км)
Погода в Михайлове (Рязанская область, Россия) (92 км)

Пояснения к столбцам:

Ветер - указаны скорость ветра в м/с - средняя за 10 мин, порывы в срок и между сроками (в фигурных скобках) и направление, откуда дует ветер: С - северный, СВ - северо-восточный, В - восточный, ЮВ - юго-восточный, Ю - южный, ЮЗ - юго-западный, З - западный, СЗ - северо-западный.
Видимость - горизонтальная дальность видимости в метрах или километрах. При видимости от 1 до 10 км при отсутствии осадков обычно наблюдается дымка, при ухудшении видимости до 1 км и менее - туман. В сухую погоду видимость может ухудшаться дымом, пылью или мглою.
Явления - указаны атмосферные явления, наблюдавшиеся в срок или в последний час перед сроком; фигурными скобками обозначены явления, наблюдавшиеся между сроками (за 1-3 часа до срока); квадратными скобками обозначены град или гололедные отложения с указанием их диаметра в мм.
Облачность - указаны через наклонную черту общая и нижняя облачность в баллах и высота нижней границы облаков в метрах; квадратными скобками обозначены формы облаков: Ci - перистые, Cs - перисто-слоистые, Cc - перисто-кучевые, Ac - высококучевые, As - высокослоистые, Sc - слоисто-кучевые, Ns - слоисто-дождевые, Cu - кучевые, Cb - кучево-дождевые. Подробнее классификацию облаков см. в Атласе облаков (PDF).
T - Температура воздуха - температура, измеренная на высоте 2 м над землей.
Td - Температура точки росы - температура, при понижении до которой содержащийся в воздухе водяной пар достигнет насыщения.
f - Относительная влажность воздуха - влажноcть воздуха, измеренная на высоте 2 м над землей.
Te - Эффективная температура - температура, которую ощущает одетый по сезону человек в тени. Характеристика душности погоды. При расчете учитывается влияние влажности воздуха и скорости ветра на теплоощущения человека.
Tes - Эффективная температура на солнце - температура, которую ощущает человек, с поправкой на солнечный нагрев. Характеристика знойности погоды. Зависит от высоты солнца над горизонтом, облачности и скорости ветра. Ночью, в пасмурную погоду, а также при ветре 12 м/с и более поправка равна нулю.
P - Атмосферное давление - приведенное к уровню моря атмосферное давление.
Po - Атмосферное давление - измеренное на уровне метеостанции атмосферное давление.
Tmin - Минимальная температура - минимум температуры воздуха на высоте 2 м над землей.
Tmax - Максимальная температура - максимум температуры воздуха на высоте 2 м над землей.
R - Количество осадков - Количество выпавших осадков за период времени, мм. При наведении курсора мыши на число - период времени, за который выпало указанное количество осадков.
R24 - Количество осадков - Количество выпавших осадков за 24 часа, мм.
S - Снежный покров - Высота снежного покрова, см. При наведении курсора мыши на число - состояние снежного покрова и степень покрытия местности в баллах.